CW3467 Weather Reports


Display with metric or nautical units.
time (UTC)temp
F
wind
direction
speed
MPH
gust
MPH
rain 1hr
in
rain 24hr
in
rain mn
in
humidity
%
barometer
mb
20260504033504 52 233 0.0 1.0 0.00 0.03 0.00 100 1014.1
20260504033004 52 233 0.0 1.0 0.00 0.03 0.00 100 1014.0
20260504032504 52 0 0.0 0.0 0.00 0.03 0.00 100 1014.3
20260504032004 52 0 0.0 0.0 0.00 0.03 0.00 100 1014.2
20260504031504 52 0 0.0 0.0 0.00 0.03 0.00 100 1014.2
20260504031004 52 0 0.0 0.0 0.00 0.03 0.00 100 1014.1
20260504030504 52 0 0.0 0.0 0.00 0.03 0.00 100 1014.0
20260504030004 52 0 0.0 0.0 0.00 0.03 0.00 100 1014.2
20260504025504 52 0 0.0 0.0 0.00 0.03 0.00 100 1014.0
20260504025004 52 0 0.0 0.0 0.00 0.03 0.00 100 1014.0
20260504024504 52 235 0.0 1.0 0.00 0.03 0.00 100 1014.1
20260504024004 53 226 0.0 1.0 0.00 0.04 0.00 100 1013.9
20260504023504 53 227 0.0 1.0 0.00 0.04 0.00 100 1013.9
20260504023004 52 236 0.0 1.0 0.00 0.04 0.00 100 1013.9
20260504022504 52 232 0.0 1.0 0.00 0.04 0.00 100 1014.0
20260504022004 52 234 0.0 1.0 0.00 0.04 0.00 100 1014.0
20260504021504 53 0 0.0 0.0 0.00 0.04 0.00 100 1013.8
20260504021025 53 0 0.0 0.0 0.00 0.05 0.00 100 1013.8
20260504020504 53 208 0.0 1.0 0.00 0.05 0.00 100 1013.9
20260504020004 53 208 0.0 1.0 0.00 0.05 0.00 100 1013.9
20260504015504 53 0 0.0 0.0 0.00 0.05 0.00 100 1014.2
20260504015004 52 0 0.0 0.0 0.00 0.05 0.00 100 1013.9
20260504014504 53 0 0.0 0.0 0.00 0.06 0.00 100 1014.0
20260504014025 53 0 0.0 0.0 0.00 0.06 0.00 100 1014.0
20260504013525 53 0 0.0 0.0 0.00 0.07 0.00 97 1014.0
20260504013004 53 208 0.0 1.0 0.00 0.07 0.00 97 1014.3
20260504012504 53 196 0.0 1.0 0.00 0.07 0.00 97 1014.3
20260504012004 54 212 0.0 1.0 0.00 0.07 0.00 95 1014.2
20260504011504 54 236 0.0 1.0 0.00 0.08 0.00 95 1014.1
20260504011004 54 238 0.0 1.0 0.00 0.08 0.00 95 1014.2
20260504010504 54 232 0.0 1.0 0.00 0.09 0.00 95 1014.1
20260504010005 54 231 0.0 1.0 0.00 0.09 0.00 95 1014.2
20260504005505 53 231 0.0 1.0 0.00 0.10 0.00 96 1014.3
20260504005005 53 0 0.0 0.0 0.00 0.11 0.00 97 1014.5
20260504004526 53 0 0.0 0.0 0.00 0.11 0.00 97 1014.3
20260504004005 53 0 0.0 0.0 0.00 0.12 0.00 97 1014.2
20260504003505 53 0 0.0 0.0 0.00 0.12 0.00 97 1014.2
20260504003005 53 0 0.0 0.0 0.00 0.12 0.00 97 1014.2
20260504002526 53 0 0.0 0.0 0.00 0.13 0.00 97 1014.6
20260504002005 53 0 0.0 0.0 0.00 0.13 0.00 97 1014.5
20260504001505 53 0 0.0 0.0 0.00 0.14 0.00 97 1014.7
20260504001005 53 0 0.0 0.0 0.00 0.14 0.00 97 1014.5
20260504000505 53 0 0.0 0.0 0.00 0.15 0.00 97 1014.6
20260504000009 54 0 0.0 0.0 0.00 0.15 0.00 97 1014.8
20260503235526 54 0 0.0 0.0 0.00 0.15 0.15 97 1014.8
20260503235005 54 0 0.0 0.0 0.00 0.16 0.15 96 1014.9
20260503234505 54 0 0.0 0.0 0.00 0.16 0.15 96 1014.9
20260503234005 54 0 0.0 0.0 0.00 0.18 0.15 96 1015.0
20260503233505 54 0 0.0 0.0 0.00 0.19 0.15 96 1015.0
20260503233005 54 0 0.0 0.0 0.00 0.20 0.15 95 1015.1
20260503232505 54 0 0.0 0.0 0.00 0.22 0.15 95 1015.1
20260503232005 54 0 0.0 0.0 0.00 0.23 0.15 95 1015.2
20260503231505 54 193 0.0 1.0 0.00 0.23 0.15 94 1015.3
20260503231026 54 193 0.0 1.0 0.00 0.23 0.15 93 1015.3
20260503230505 54 207 0.0 1.0 0.00 0.23 0.15 93 1015.0
20260503230005 55 204 0.0 1.0 0.00 0.23 0.15 93 1015.4
20260503225526 55 187 0.0 1.0 0.00 0.23 0.15 92 1015.1
20260503225005 54 187 0.0 1.0 0.00 0.23 0.15 92 1015.3
20260503224505 54 205 0.0 1.0 0.00 0.23 0.15 93 1015.2
20260503224005 55 218 0.0 1.0 0.00 0.23 0.15 93 1015.3
20260503223504 54 219 0.0 1.0 0.00 0.23 0.15 93 1015.2
20260503223026 54 220 0.0 1.0 0.00 0.23 0.15 94 1015.2
20260503222504 55 0 0.0 0.0 0.00 0.23 0.15 95 1015.0
20260503222005 54 0 0.0 0.0 0.00 0.23 0.15 95 1015.1
20260503221505 55 0 0.0 0.0 0.00 0.23 0.15 95 1015.1
20260503221005 55 0 0.0 0.0 0.00 0.23 0.15 95 1015.0
20260503220505 55 232 0.0 1.0 0.00 0.23 0.15 95 1015.2
20260503220005 55 232 0.0 1.0 0.00 0.23 0.15 95 1015.2
20260503215505 55 0 0.0 0.0 0.00 0.23 0.15 95 1015.1
20260503215004 55 210 0.0 1.0 0.00 0.23 0.15 95 1015.1
20260503214504 55 210 0.0 1.0 0.00 0.23 0.15 94 1015.3
20260503214026 55 209 0.0 1.0 0.00 0.23 0.15 94 1015.3
20260503213505 55 195 0.0 1.0 0.00 0.23 0.15 94 1015.4
20260503213025 55 192 0.0 1.0 0.00 0.23 0.15 94 1015.1
20260503212504 55 187 0.0 1.0 0.00 0.23 0.15 93 1015.2
20260503212005 55 192 0.0 1.0 0.00 0.23 0.15 93 1015.1
20260503211525 55 192 0.0 1.0 0.00 0.23 0.15 93 1015.0
20260503211004 54 209 0.0 1.0 0.00 0.23 0.15 93 1015.3
20260503210505 55 237 0.0 2.0 0.00 0.23 0.15 94 1015.1
20260503210005 55 250 0.0 2.0 0.00 0.23 0.15 93 1015.3
20260503205505 55 240 0.0 1.0 0.00 0.23 0.15 93 1015.2
20260503205025 55 237 0.0 1.0 0.00 0.23 0.15 93 1015.3
20260503204505 55 226 0.0 2.0 0.00 0.23 0.15 94 1015.0
20260503204005 54 226 1.0 2.0 0.00 0.23 0.15 95 1015.1
20260503203505 54 228 1.0 2.0 0.00 0.23 0.15 96 1014.9
20260503203004 54 232 0.0 1.0 0.00 0.23 0.15 96 1015.0
20260503202505 54 240 0.0 1.0 0.00 0.23 0.15 96 1015.2
20260503202004 54 251 1.0 3.0 0.00 0.23 0.15 95 1015.0
20260503201505 55 252 1.0 3.0 0.00 0.23 0.15 94 1015.0
20260503201025 55 225 0.0 1.0 0.00 0.23 0.15 91 1015.0
20260503200504 55 226 0.0 1.0 0.00 0.23 0.15 90 1014.5
20260503200025 55 226 0.0 1.0 0.00 0.23 0.15 93 1014.6
20260503195504 55 226 0.0 1.0 0.00 0.23 0.15 92 1014.3
20260503195005 55 234 0.0 1.0 0.00 0.23 0.15 93 1014.3
20260503194504 55 226 0.0 1.0 0.00 0.23 0.15 93 1014.3
20260503194026 55 198 0.0 1.0 0.00 0.23 0.15 93 1014.1
20260503193526 54 199 0.0 1.0 0.00 0.23 0.15 94 1014.1
20260503193005 54 225 0.0 1.0 0.00 0.23 0.15 96 1014.1
20260503192505 54 228 0.0 1.0 0.00 0.23 0.15 96 1014.1
20260503192005 54 227 0.0 2.0 0.00 0.23 0.15 96 1014.1
20260503191504 54 232 0.0 2.0 0.00 0.23 0.15 97 1014.1
20260503191004 54 235 0.0 2.0 0.01 0.23 0.15 96 1014.1
20260503190504 54 235 1.0 2.0 0.01 0.23 0.15 96 1014.3
20260503190005 54 186 0.0 2.0 0.01 0.23 0.15 96 1014.3
20260503185504 54 150 0.0 2.0 0.02 0.23 0.15 96 1014.3
20260503185005 54 199 0.0 2.0 0.02 0.23 0.15 96 1014.2
20260503184504 55 195 0.0 2.0 0.02 0.23 0.15 95 1014.2
20260503184004 55 243 1.0 3.0 0.03 0.23 0.15 94 1014.1
20260503183504 55 237 1.0 3.0 0.03 0.23 0.15 95 1013.9
20260503183004 55 197 0.0 2.0 0.03 0.23 0.15 96 1013.9
20260503182525 55 218 0.0 2.0 0.03 0.23 0.15 96 1014.0
20260503182006 55 184 0.0 2.0 0.03 0.23 0.15 97 1014.1
20260503181505 56 172 0.0 2.0 0.03 0.23 0.15 97 1014.0
20260503181005 56 192 0.0 1.0 0.02 0.22 0.14 96 1014.3
20260503180504 56 177 1.0 2.0 0.02 0.22 0.14 95 1014.2
20260503180005 56 164 0.0 2.0 0.02 0.22 0.14 94 1014.2
20260503175504 56 188 0.0 1.0 0.01 0.21 0.13 93 1014.2
20260503175004 56 149 1.0 3.0 0.01 0.21 0.13 92 1014.2
20260503174504 57 135 1.0 3.0 0.01 0.21 0.13 93 1014.3
20260503174025 57 146 1.0 3.0 0.00 0.20 0.12 92 1014.2
20260503173504 57 181 0.0 2.0 0.00 0.20 0.12 90 1013.9
20260503173005 58 216 0.0 1.0 0.00 0.20 0.12 90 1014.1
20260503172504 58 150 0.0 3.0 0.00 0.20 0.12 89 1014.1
20260503172004 58 158 0.0 3.0 0.00 0.20 0.12 88 1013.8
20260503171504 59 237 0.0 4.0 0.00 0.20 0.12 85 1014.0
20260503171005 58 249 1.0 4.0 0.00 0.20 0.12 85 1013.9
20260503170504 59 241 1.0 3.0 0.00 0.20 0.12 84 1014.0
20260503151004 62 305 4.0 10.0 0.00 0.20 0.12 78 1013.9
20260503150504 63 292 4.0 9.0 0.00 0.20 0.12 78 1013.7
20260503131025 65 261 2.0 6.0 0.00 0.20 0.12 74 1014.6
20260503130504 65 267 1.0 10.0 0.00 0.20 0.12 75 1015.0
20260503110525 63 68 1.0 4.0 0.00 0.21 0.12 78 1016.3
20260503090504 59 270 1.0 3.0 0.00 0.21 0.12 89 1017.1
20260503081525 57 251 0.0 2.0 0.00 0.21 0.12 91 1017.1
20260503081004 56 256 1.0 3.0 0.00 0.21 0.12 93 1017.1
20260503080504 56 250 1.0 2.0 0.00 0.21 0.12 97 1017.0
20260503072504 54 217 0.0 2.0 0.00 0.21 0.12 100 1017.3
20260503072004 54 246 0.0 2.0 0.00 0.21 0.12 100 1017.4
20260503071504 53 248 0.0 2.0 0.00 0.21 0.12 100 1017.8
20260503071004 53 218 0.0 1.0 0.00 0.21 0.12 100 1017.6
20260503070504 53 217 0.0 1.0 0.00 0.21 0.12 100 1017.6
20260503055004 51 260 0.0 1.0 0.00 0.26 0.12 100 1017.6
20260503054525 51 260 0.0 1.0 0.00 0.26 0.12 100 1017.4
20260503054025 51 0 0.0 0.0 0.00 0.26 0.12 100 1017.4
20260503053525 51 0 0.0 0.0 0.00 0.26 0.12 100 1017.3
20260503053004 51 0 0.0 0.0 0.00 0.26 0.12 100 1017.5
20260503052504 51 0 0.0 0.0 0.00 0.26 0.12 100 1017.4
20260503052004 51 0 0.0 0.0 0.00 0.26 0.12 100 1017.4
20260503051504 51 0 0.0 0.0 0.00 0.26 0.12 100 1017.4
20260503051004 51 0 0.0 0.0 0.00 0.26 0.12 100 1017.5
20260503050504 51 0 0.0 0.0 0.00 0.26 0.12 100 1017.4
20260503050005 51 239 0.0 1.0 0.00 0.26 0.12 100 1017.6
20260503045504 51 239 0.0 1.0 0.00 0.26 0.12 100 1017.5
20260503045004 51 207 0.0 1.0 0.00 0.26 0.12 100 1017.4
20260503044504 51 198 0.0 1.0 0.00 0.26 0.12 100 1017.4
20260503044004 51 196 0.0 1.0 0.00 0.26 0.12 100 1017.3
20260503043504 51 207 0.0 1.0 0.00 0.26 0.12 100 1017.3
20260503043004 51 210 0.0 1.0 0.00 0.26 0.12 100 1017.4
20260503042504 51 0 0.0 0.0 0.00 0.26 0.12 100 1017.3
20260503042004 51 0 0.0 0.0 0.00 0.26 0.12 100 1017.3
20260503041525 51 0 0.0 0.0 0.00 0.26 0.12 100 1017.2
20260503041004 51 226 0.0 1.0 0.00 0.26 0.12 100 1017.4
20260503040504 51 226 0.0 1.0 0.00 0.26 0.12 100 1017.4
20260503040004 51 241 0.0 1.0 0.00 0.26 0.12 100 1017.5
20260503035504 51 243 0.0 1.0 0.00 0.26 0.12 100 1017.5
20260503035004 51 253 0.0 2.0 0.00 0.26 0.12 100 1017.5
20260503034504 51 256 0.0 2.0 0.00 0.26 0.12 100 1017.5
20260503034004 50 239 0.0 1.0 0.01 0.26 0.12 100 1017.5